Zurück zum Katalog

FREGAT R/B

AktivMEO
NORAD 39192·ROCKET BODY·🇷🇺 Russia

Gestartet Jun 25, 2013 von Guiana Space Centre

Loading…

Nächste Überflüge (nächste 24 Stunden)

TLE

AktuellSource: Space-Track

Epoche: Sep 14, 2026, 12:28 UTC

1 39192U 13031E   26257.51952992 -.00000024  00000-0  00000-0 0  9993
2 39192   0.1664 350.8611 0008911 277.4528  91.5852  5.20984135251680

Verfolge FREGAT R/B in Echtzeit mit AllMySat

Download on the App Store